Weather Roundup
Issued by NWS Springfield, MO

Home | Current Version | Previous Version | Text Only | Print | Product List | Glossary On
Versions: 1 2 3 4 5 6 7 8 9 10 11 12 13 14 15 16 17 18 19 20 21 22 23 24 25 26 27 28 29 30 31 32 33 34 35 36 37 38 39 40 41 42 43 44 45 46 47 48 49 50
000
NZUS99 KSGF 191607
HRRSGF

HOURLY WEATHER
NATIONAL WEATHER SERVICE SPRINGFIELD MO
1100 AM CDT THU OCT 19 2017

......SGF CWA......

CITY           SKY/WX    TMP DP  RH WIND       PRES   REMARKS
SPRINGFIELD    SUNNY     68  53  58 S14       30.21R
JOPLIN         SUNNY     71  53  52 SW12      30.19S
WEST PLAINS    SUNNY     69  52  54 SW5       30.25S
ROLLA          SUNNY     68  50  52 SW10      30.22S
OSAGE BEACH    SUNNY     70  52  52 SW8       30.21S
BRANSON        MOSUNNY   70  50  49 SW7       30.24S

......SURROUNDING SGF CWA......

CITY           SKY/WX    TMP DP  RH WIND       PRES   REMARKS
CHANUTE        SUNNY     69  50  50 S15       30.15S
PARSONS        SUNNY     69  51  52 S12       30.17S
COFFEYVILLE    SUNNY     69  54  58 S10       30.16R
EMPORIA        SUNNY     66  50  56 S12       30.12R
GROVE OK       SUNNY     72  55  56 S9        30.20S
ROGERS AR      SUNNY     69  52  54 SW14      30.23S
SILOAM SPRINGS MOSUNNY   68  55  63 S10       30.23S
HARRISON AR    SUNNY     68  53  58 VRB3      30.24S
NEAR YELLVILLE SUNNY     67  53  61 CALM      30.24S

......KANSAS AND MISSOURI......

CITY           SKY/WX    TMP DP  RH WIND       PRES   REMARKS
KANSAS CTY INT SUNNY     67  51  56 SW10      30.12S
DOWNTOWN KC    SUNNY     70  51  51 SW9       30.12S
COLUMBIA       SUNNY     68  52  56 SW9       30.18S
SEDALIA        SUNNY     71  51  49 SW14G22   30.17S
ST JOSEPH      SUNNY     66  53  63 S7        30.11S
ST LOUIS       MOSUNNY   70  51  51 SW6       30.20S
SPIRIT OF STL  SUNNY     71  52  50 SW9       30.19S
KIRKSVILLE     SUNNY     64  54  69 S3        30.16S
WICHITA        MOSUNNY   66  50  56 S15       30.11S
TOPEKA         SUNNY     66  52  60 VRB6      30.11S
OLATHE         SUNNY     65  49  56 SW10      30.13S

......TENNESSEE......

CITY           SKY/WX    TMP DP  RH WIND       PRES   REMARKS
MEMPHIS        MOSUNNY   68  50  52 S5        30.29R
NASHVILLE      SUNNY     67  45  45 S8        30.33F

......ARKANSAS.......

CITY           SKY/WX    TMP DP  RH WIND       PRES   REMARKS
FAYETTEVILLE   MOSUNNY   69  54  58 SW10G18   30.23S
FT SMITH       MOSUNNY   67  56  67 E3        30.22F
LITTLE ROCK    PTSUNNY   67  55  65 CALM      30.25F

......OKLAHOMA.......

CITY           SKY/WX    TMP DP  RH WIND       PRES   REMARKS
TULSA          CLOUDY    68  52  56 S15       30.16F
PONCA CITY     CLOUDY    67  48  50 S7        30.14S
MCALESTER      CLOUDY    69  59  70 S9        30.21S
OKLAHOMA CITY  PTSUNNY   66  49  54 S14       30.15S

......IOWA............

CITY           SKY/WX    TMP DP  RH WIND       PRES   REMARKS
DES MOINES     PTSUNNY   64  34  32 SE12      30.13S
QUAD CITIES    SUNNY     65  42  43 E10       30.17S

......ILLINOIS........

CITY           SKY/WX    TMP DP  RH WIND       PRES   REMARKS
QUINCY         SUNNY     65  50  58 VRB5      30.17R
CHICAGO        MOSUNNY   64  26  23 NE6       30.19R




USA.gov is the U.S. government's official web portal to all federal, state and local government web resources and services.